Tracking 25954 objects as of 14-Aug-2022
HD Live streaming from Space Station
objects crossing your sky now

COSMOS 1766

Track COSMOS 1766 now!
10-day predictions
COSMOS 1766 is classified as:


NORAD ID: 16881
Int'l Code: 1986-055A
Perigee: 522.4 km
Apogee: 545.8 km
Inclination: 82.5 °
Period: 95.2 minutes
Semi major axis: 6905 km
RCS: 9.3716 m2 (large)
Launch date: July 28, 1986
Source: Commonwealth of Independent States (former USSR) (CIS)
Launch site: PLESETSK MISSILE AND SPACE COMPLEX (PKMTR)
aabbcc
Your satellite tracking list
Your tracking list is empty




NASA's NSSDC Master Catalog

Two Line Element Set (TLE):
1 16881U 86055A   22225.76460518  .00002208  00000-0  12289-3 0  9995
2 16881  82.5086 338.4257 0016956  96.7406 263.5755 15.13026600944718
Source of the keplerian elements: AFSPC